Weather History for KDAG - May, 2014

Change the Weather History Date:

Friday, May 2, 2014

  Actual Average Record
Temperature  
Mean Temperature 80 °F -  
Max Temperature 97 °F 85 °F 97 °F (1985)
Min Temperature 62 °F 56 °F 42 °F (1953)
Cooling Degree Days 14    
Growing Degree Days 30 (Base 50)    
Moisture  
Dew Point 16 °F    
Average Humidity 11    
Maximum Humidity 19    
Minimum Humidity 4    
Precipitation  
Precipitation 0.00 in - - ()
Sea Level Pressure  
Sea Level Pressure 29.94 in    
Wind  
Wind Speed 11 mph (WNW)    
Max Wind Speed 20 mph    
Max Gust Speed -    
Visibility 10 miles    
Events      
Averages and records for this station are not official NWS values.
T = Trace of Precipitation, MM = Missing Value Source: NWS Daily Summary

Daily Weather History Graph

Daily Weather History Graph

Search for Another Location

Airport or City:

Trip Planner

Search our weather history database for the weather conditions in past years. The results will help you decide how hot, cold, wet, or windy it might be!

Date:

Astronomy

May. 02, 2014 Rise Set
Actual Time 5:55 AM PDT 7:33 PM PDT
Civil Twilight 5:28 AM PDT 8:00 PM PDT
Nautical Twilight 4:55 AM PDT 8:33 PM PDT
Astronomical Twilight 4:21 AM PDT 9:07 PM PDT
Moon 8:39 AM PDT (5/2) 10:56 PM PDT (5/2)
Length of Visible Light 14h 32m
Length of Day
13h 37m
Waxing Crescent, 13% of the Moon is Illuminated
May 2
Waxing Crescent
May 6
First Quarter
May 14
Full
May 21
Last Quarter
May 28
New

Hourly Weather History & Observations

Time (PDT) Temp. Dew Point Humidity Pressure Visibility Wind Dir Wind Speed Gust Speed Precip Events Conditions
12:50 AM 64.0 °F 8.1 °F 11% 30.00 in 10.0 mi WNW 10.4 mph - N/A   Clear
1:50 AM 68.0 °F 10.0 °F 11% 29.99 in 10.0 mi WSW 10.4 mph - N/A   Clear
2:50 AM 63.0 °F 14.0 °F 15% 30.00 in 10.0 mi West 12.7 mph - N/A   Clear
3:50 AM 62.1 °F 14.0 °F 15% 30.00 in 10.0 mi West 12.7 mph - N/A   Clear
4:50 AM 62.1 °F 18.0 °F 18% 30.00 in 10.0 mi West 11.5 mph - N/A   Clear
5:50 AM 63.0 °F 19.9 °F 19% 30.01 in 10.0 mi West 12.7 mph - N/A   Clear
6:50 AM 64.0 °F 19.9 °F 18% 30.02 in 10.0 mi West 12.7 mph - N/A   Clear
7:50 AM 70.0 °F 23.0 °F 17% 30.03 in 10.0 mi West 11.5 mph - N/A   Clear
8:50 AM 75.0 °F 26.1 °F 16% 30.03 in 10.0 mi West 10.4 mph - N/A   Clear
9:50 AM 82.9 °F 30.9 °F 15% 30.01 in 10.0 mi WNW 9.2 mph - N/A   Clear
10:50 AM 86.0 °F 33.1 °F 15% 30.01 in 10.0 mi NW 12.7 mph - N/A   Clear
11:50 AM 89.1 °F 30.0 °F 12% 29.99 in 10.0 mi NNW 12.7 mph - N/A   Clear
12:50 PM 91.9 °F 18.0 °F 7% 29.95 in 10.0 mi WNW 8.1 mph - N/A   Clear
1:50 PM 93.9 °F 9.0 °F 4% 29.92 in 10.0 mi NNE 8.1 mph - N/A   Clear
2:50 PM 96.1 °F 6.1 °F 4% 29.90 in 10.0 mi North 8.1 mph - N/A   Clear
3:50 PM 95.0 °F 3.9 °F 4% 29.87 in 10.0 mi Calm Calm - N/A   Clear
4:50 PM 97.0 °F 5.0 °F 4% 29.85 in 10.0 mi NW 9.2 mph - N/A   Clear
5:50 PM 95.0 °F 7.0 °F 4% 29.83 in 10.0 mi West 12.7 mph - N/A   Clear
6:50 PM 93.0 °F 14.0 °F 5% 29.81 in 10.0 mi WNW 8.1 mph - N/A   Clear
7:50 PM 86.0 °F 12.9 °F 7% 29.83 in 10.0 mi West 11.5 mph - N/A   Clear
8:50 PM 86.0 °F 18.0 °F 8% 29.86 in 10.0 mi West 19.6 mph - N/A   Clear
9:50 PM 82.0 °F 19.9 °F 10% 29.87 in 10.0 mi West 18.4 mph - N/A   Clear
10:50 PM 80.1 °F 16.0 °F 9% 29.88 in 10.0 mi WSW 19.6 mph - N/A   Clear
11:50 PM 80.1 °F 12.0 °F 8% 29.88 in 10.0 mi WSW 17.3 mph - N/A   Clear